MPEC 2003-G25 : 2003 GS

The following Minor Planet Electronic Circular may be linked-to from your own Web pages, but must not otherwise be redistributed electronically.


Read MPEC 2003-G24 Read MPEC 2003-G26


M.P.E.C. 2003-G25                                Issued 2003 Apr. 5, 14:27 UT

     The Minor Planet Electronic Circulars contain information on unusual
         minor planets and routine data on comets.  They are published
   on behalf of Commission 20 of the International Astronomical Union by the
          Minor Planet Center, Smithsonian Astrophysical Observatory,
                          Cambridge, MA 02138, U.S.A.

             Prepared using the Tamkin Foundation Computer Network

                              MPC@CFA.HARVARD.EDU
          URL http://cfa-www.harvard.edu/iau/mpc.html  ISSN 1523-6714

                                    2003 GS

Observations:
     K03G00S* C2003 04 04.13966 08 50 43.30 +03 04 31.0          16.4 R      699
     K03G00S  C2003 04 04.15562 08 50 45.09 +03 05 48.0                      699
     K03G00S  C2003 04 04.17165 08 50 46.92 +03 07 05.1                      699
     K03G00S  C2003 04 04.18770 08 50 48.72 +03 08 23.6                      699
     K03G00S  C2003 04 04.29752 08 51 01.66 +03 17 09.6          16.4 R      699
     K03G00S  C2003 04 04.30083 08 51 02.06 +03 17 25.4                      699
     K03G00S  C2003 04 04.30416 08 51 02.46 +03 17 41.2                      699
     K03G00S  C2003 04 04.30746 08 51 02.86 +03 17 57.1                      699
     K03G00S  C2003 04 04.77564 08 52 08.37 +03 54 51.4          16.9 R      113
     K03G00S  C2003 04 04.77641 08 52 08.45 +03 54 54.4          16.6 R      113
     K03G00S  C2003 04 04.77719 08 52 08.57 +03 54 57.7          17.1 R      113
     K03G00S  C2003 04 04.77795 08 52 08.64 +03 55 01.4          16.9 R      113
     K03G00S  C2003 04 04.78690 08 52 09.92 +03 55 45.1          17.0 V      198
     K03G00S  C2003 04 04.78837 08 52 10.09 +03 55 51.9          17.0 V      198
     K03G00S  C2003 04 04.78910 08 52 10.16 +03 55 55.3          17.2 V      198
     K03G00S  C2003 04 04.79119 08 52 10.15 +03 56 04.8                      246
     K03G00S  C2003 04 04.79177 08 52 10.23 +03 56 07.3                      246
     K03G00S  C2003 04 04.79225 08 52 10.28 +03 56 09.8                      246
     K03G00S  C2003 04 04.79279 08 52 10.59 +03 56 12.7          17.0 V      198
     K03G00S  C2003 04 04.79280 08 52 10.35 +03 56 12.3                      246
     K03G00S  C2003 04 04.79317 08 52 10.40 +03 56 14.3                      246
     K03G00S  C2003 04 04.79365 08 52 10.44 +03 56 16.3                      246
     K03G00S  C2003 04 04.79575 08 52 10.95 +03 56 27.2          17.2 V      198
     K03G00S  C2003 04 04.80017 08 52 11.45 +03 56 47.3          17.1 V      198
     K03G00S  C2003 04 04.80164 08 52 11.62 +03 56 54.4          17.1 V      198
     K03G00S  C2003 04 04.80313 08 52 11.82 +03 57 01.4          17.1 V      198
     K03G00S  C2003 04 04.80606 08 52 12.13 +03 57 15.0          17.1 V      198
     K03G00S  C2003 04 04.81047 08 52 12.67 +03 57 35.9          17.2 V      198
     K03G00S  C2003 04 04.81229 08 52 13.58 +03 57 50.0          16.9 R      J87
     K03G00S  C2003 04 04.81329 08 52 13.59 +03 57 54.3          17.1 R      J87
     K03G00S  C2003 04 04.81472 08 52 13.78 +03 58 02.0          17.0 R      J87
     K03G00S  C2003 04 04.81615 08 52 13.97 +03 58 08.7          16.8 R      J87
     K03G00S  C2003 04 04.81784 08 52 13.54 +03 58 10.5          17.2 V      198
     K03G00S  C2003 04 04.82067 08 52 14.12 +03 58 25.8          17.0 R      232
     K03G00S  C2003 04 04.82323 08 52 14.50 +03 58 40.7          17.0 R      232
     K03G00S  C2003 04 04.83615 08 52 16.31 +03 59 43.2          17.0 R      232
     K03G00S  C2003 04 04.86522 08 52 19.83 +04 01 59.5          16.6 R      938
     K03G00S  C2003 04 04.86593 08 52 19.67 +04 01 53.9          17.0 R      J95
     K03G00S  C2003 04 04.86833 08 52 20.22 +04 02 14.1          16.9 R      938
     K03G00S  C2003 04 04.86917 08 52 20.05 +04 02 08.7          16.8 R      J95
     K03G00S  C2003 04 04.87081 08 52 20.48 +04 02 25.4          16.7 R      938
     K03G00S  C2003 04 04.87220 08 52 20.66 +04 02 31.3          16.9 R      938
     K03G00S  C2003 04 04.87359 08 52 20.82 +04 02 38.5          16.9 R      938
     K03G00S  C2003 04 04.87499 08 52 20.96 +04 02 45.7          17.0 R      938
     K03G00S  C2003 04 04.87638 08 52 21.13 +04 02 52.1          16.7 R      938
     K03G00S  C2003 04 04.88671 08 52 21.89 +04 03 40.3          16.8 V      941
     K03G00S  C2003 04 04.88691 08 52 21.41 +04 03 33.7          16.8 R      118
     K03G00S  C2003 04 04.88762 08 52 22.01 +04 03 44.2          16.8 V      941
     K03G00S  C2003 04 04.88807 08 52 21.53 +04 03 39.5                      118
     K03G00S  C2003 04 04.88939 08 52 22.21 +04 03 52.5          16.8 V      941
     K03G00S  C2003 04 04.89027 08 52 22.32 +04 03 56.6          16.8 V      941
     K03G00S  C2003 04 04.89029 08 52 21.79 +04 03 49.9                      118
     K03G00S  C2003 04 04.89116 08 52 22.42 +04 04 00.7          16.8 V      941
     K03G00S  C2003 04 04.89350 08 52 22.16 +04 04 04.9                      118
     K03G00S  C2003 04 04.90010 08 52 23.89 +04 04 43.3          16.8 R      938
     K03G00S  C2003 04 04.90149 08 52 24.06 +04 04 48.5          16.9 R      938
     K03G00S  C2003 04 04.90288 08 52 24.17 +04 04 56.1          16.8 R      938
     K03G00S  C2003 04 04.90427 08 52 24.41 +04 05 02.3          16.8 R      938
     K03G00S  C2003 04 04.90567 08 52 24.53 +04 05 09.2          16.8 R      938
     K03G00S  C2003 04 04.92521 08 52 26.77 +04 06 40.2          16.9 R      938
     K03G00S  C2003 04 04.92659 08 52 26.52 +04 06 44.7          16.8 V      170
     K03G00S  C2003 04 04.92660 08 52 26.84 +04 06 46.4          16.8 R      938
     K03G00S  C2003 04 04.92720 08 52 26.61 +04 06 47.7          16.8 V      170
     K03G00S  C2003 04 04.92799 08 52 27.10 +04 06 52.9          16.8 R      938
     K03G00S  C2003 04 04.92844 08 52 26.82 +04 06 53.0          16.8 V      170
     K03G00S  C2003 04 04.92939 08 52 27.26 +04 06 59.5          16.8 R      938
     K03G00S  C2003 04 05.09940 08 52 51.73 +04 20 18.8          16.7 R      711
     K03G00S  C2003 04 05.10301 08 52 52.14 +04 20 35.8          16.7 R      711
     K03G00S  C2003 04 05.10663 08 52 52.55 +04 20 52.5          16.8 R      711
     K03G00S  C2003 04 05.13113 08 52 55.69 +04 22 45.3          17.3 R      333
     K03G00S  C2003 04 05.13215 08 52 55.78 +04 22 50.0          17.2 R      333
     K03G00S  C2003 04 05.13315 08 52 55.90 +04 22 54.5          17.1 R      333
     K03G00S  C2003 04 05.13415 08 52 56.02 +04 22 59.2          17.0 R      333
     K03G00S  C2003 04 05.13789 08 52 56.44 +04 23 16.3          17.3 R      333
     K03G00S  C2003 04 05.13803 08 52 56.47 +04 23 17.2          16.7 R      926
     K03G00S  C2003 04 05.13826 08 52 56.49 +04 23 17.9          16.9 R      333
     K03G00S  C2003 04 05.13857 08 52 56.51 +04 23 19.5          17.1 R      333
     K03G00S  C2003 04 05.13888 08 52 56.54 +04 23 20.8          17.1 R      333
     K03G00S  C2003 04 05.13918 08 52 56.58 +04 23 22.5          17.1 R      333
     K03G00S  C2003 04 05.13950 08 52 56.62 +04 23 24.1          17.1 R      333
     K03G00S  C2003 04 05.13964 08 52 56.66 +04 23 24.4          16.8 R      926
     K03G00S  C2003 04 05.13981 08 52 56.66 +04 23 25.5          17.2 R      333
     K03G00S  C2003 04 05.14012 08 52 56.69 +04 23 26.9          17.2 R      333
     K03G00S  C2003 04 05.14105 08 52 56.83 +04 23 31.8          16.8 R      926
     K03G00S  C2003 04 05.14535 08 52 56.58 +04 23 44.9          17.5 R      734
     K03G00S  C2003 04 05.14825 08 52 56.87 +04 23 58.1          17.1 R      734
     K03G00S  C2003 04 05.22438 08 53 06.14 +04 29 55.4          17.0 R      448
     K03G00S  C2003 04 05.22801 08 53 06.57 +04 30 12.2          16.9 R      448
     K03G00S  C2003 04 05.23167 08 53 07.00 +04 30 29.1          16.8 R      448
     K03G00S  C2003 04 05.23322 08 53 07.32 +04 30 37.0          17.0 R      651
     K03G00S  C2003 04 05.23610 08 53 07.59 +04 30 49.1          16.7 R      651

Observer details:
113 Volkssternwarte Drebach, Schoenbrunn.  Observer A. Knofel.  0.50-m f/4.0
    reflector + CCD.
118 Modra.  Observers S. Gajdos, J. Toth.  0.6-m f/5.5 reflector + CCD.
170 Observatorio de Begues.  Observer J. Manteca.  0.31-m f/6.3
    Schmidt-Cassegrain + CCD.
198 Wildberg.  Observer R. Apitzsch.  0.235-m Schmidt-Cassegrain + CCD.
232 Masquefa Observatory.  Observer E. Reina.  0.25-m f/6.3 Schmidt-Cassegrain
    + CCD.
246 Klet Observatory-KLENOT.  Observers J. Ticha, M. Tichy.  1.06-m KLENOT
    Telescope + CCD.
333 Desert Eagle Observatory.  Observer W. K. Y. Yeung.  0.45-m f/3
    Schmidt-Cassegrain + CCD.
448 Desert Moon Observatory.  Observer B. L. Stevens.  0.3-m
    Schmidt-Cassegrain + CCD.
651 Grasslands Observatory, Tucson.  Observer J. E. McGaha.  0.62-m f/5.1
    Newtonian + CCD.
699 Lowell Observatory-LONEOS.  Observer M. E. Van Ness.  0.59-m LONEOS
    Schmidt + CCD.
711 McDonald Observatory.  Observer J. G. Ries.  0.76-m reflector with prime
    focus corrector + CCD.
734 Farpoint Observatory.  Observer G. Hug.  0.30-m Schmidt-Cassegrain + CCD.
926 Tenagra II Observatory.  Observers P. R. Holvorcem, M. Schwartz.  0.81-m
    f/7 Ritchey-Chretien + CCD.
938 Linhaceira.  Observer R. Goncalves.  0.25-m f/6.7 Schmidt-Cassegrain + CCD.
941 Observatorio Pla D'Arguines.  Observer R. Ferrando.  0.30-m
    Schmidt-Cassegrain + CCD.
J87 La Canada.  Observer J. Lacruz.  0.30-m f/3.3 Schmidt-Cassegrain + CCD.
J95 Great Shefford.  Observer P. Birtwhistle.  0.30-m f/6.3 Schmidt-Cassegrain
    + CCD.

Orbital elements:
2003 GS                                                              PHA 0.007
Epoch 2003 Mar. 22.0 TT = JDT 2452720.5                 MPC
M 147.70607              (2000.0)            P               Q
n   1.16736538     Peri.  181.79868     +0.95037990     -0.30550245
a   0.8933017      Node   196.36207     +0.28795980     +0.93531338
e   0.2181821      Incl.   12.02811     +0.11771662     +0.17848566
P   0.84           H   19.1           G   0.15
From 91 observations 2003 Apr. 4-5.

Ephemeris:
2003 GS                  a,e,i = 0.89, 0.22, 12                  q = 0.6984
Date    TT    R. A. (2000) Decl.     Delta      r     Elong.  Phase     V
2003 04 01    08 43.75   -01 24.4    0.143    1.080   121.0    52.5    17.0
2003 04 06    08 54.86   +05 29.0    0.157    1.084   118.2    54.4    17.2
2003 04 11    09 06.03   +11 02.7    0.174    1.087   114.9    56.8    17.5
2003 04 16    09 17.24   +15 28.6    0.192    1.088   111.4    59.2    17.8
2003 04 21    09 28.43   +18 59.2    0.210    1.088   107.9    61.5    18.1
2003 04 26    09 39.61   +21 45.6    0.229    1.087   104.6    63.6    18.3
2003 05 01    09 50.79   +23 56.6    0.248    1.084   101.4    65.7    18.6
2003 05 06    10 01.95   +25 39.3    0.267    1.080    98.3    67.5    18.8
2003 05 11    10 13.06   +26 59.7    0.285    1.075    95.4    69.3    19.0

2003 05 21    10 34.89   +28 50.9    0.318    1.060    89.9    72.7    19.3
2003 05 31    10 55.99   +29 56.8    0.345    1.040    84.6    76.1    19.5
2003 06 10    11 16.11   +30 34.9    0.365    1.015    79.6    79.7    19.7
2003 06 20    11 34.64   +31 00.0    0.377    0.986    74.6    83.7    19.9
2003 06 30    11 50.76   +31 22.6    0.380    0.952    69.4    88.7    20.0
2003 07 10    12 03.17   +31 53.0    0.373    0.915    63.7    94.9    20.2
2003 07 20    12 09.33   +32 39.9    0.357    0.875    57.1   102.9    20.3

Brian G. Marsden             (C) Copyright 2003 MPC           M.P.E.C. 2003-G25

Read MPEC 2003-G24 Read MPEC 2003-G26


Our Web policy. Index to the CBAT/MPC/ICQ pages.

MPC